Regional Weather Roundup
Issued by NWS

Home | Current Version | Previous Version | Graphics & Text | Print | Product List | Glossary On
Versions: 1 2 3 4 5 6 7 8 9 10 11 12 13 14 15 16 17 18 19 20 21 22 23 24 25 26 27 28 29 30 31 32 33 34 35 36 37 38 39 40 41 42 43 44 45 46 47 48 49 50
856
ASUS43 KOAX 251510
RWRNE

WEATHER ROUNDUP FOR NEBRASKA
NATIONAL WEATHER SERVICE OMAHA NE
1000 AM CDT THU MAY 25 2017

NOTES: SATELLITE DATA IS BEING USED TO AUGMENT CLOUD COVER ABOVE
       12000 FEET.
       "FAIR" INDICATES FEW OR NO CLOUDS BELOW 12,000 FEET WITH NO
       SIGNIFICANT WEATHER AND/OR OBSTRUCTIONS TO VISIBILITY.

  * THESE STATIONS DO NOT REPORT WEATHER SUCH AS RAIN...SNOW OR FOG.

NEZ001>004-019>022-054>056-251600-
NEBRASKA PANHANDLE

CITY           SKY/WX    TMP DP  RH WIND       PRES   REMARKS
SCOTTSBLUFF    MOSUNNY   63  43  48 NW6       29.55R
ALLIANCE       PTSUNNY   64  46  52 N12       29.53R
CHADRON        CLOUDY    59  44  57 W6        29.54S
GORDON         FAIR      61  40  47 N15       29.54R
KIMBALL        MOSUNNY   64  48  56 N6        29.60R
SIDNEY         MOSUNNY   65  48  54 N12       29.56R
$$

NEZ057>060-069>072-079>082-251600-
SOUTHWEST NEBRASKA

CITY           SKY/WX    TMP DP  RH WIND       PRES   REMARKS
NORTH PLATTE   MOSUNNY   59  49  69 S6        29.53R
IMPERIAL       MOSUNNY   68  51  54 N13       29.49F
LEXINGTON      CLOUDY    58  47  68 S13       29.55R
MCCOOK         CLOUDY    60  49  66 S6        29.51S
OGALLALA       PTSUNNY   61  49  64 CALM      29.49F
$$

NEZ005>010-023>029-035>040-094-251600-
NORTH CENTRAL NEBRASKA

CITY           SKY/WX    TMP DP  RH WIND       PRES   REMARKS
VALENTINE      CLOUDY    63  45  51 NW10      29.47S
AINSWORTH      CLOUDY    56  48  73 S3        29.47F
BROKEN BOW     MOSUNNY   57  47  69 S9        29.54S
O`NEILL        SUNNY     64  46  51 S20G28    29.53R
ORD            LGT RAIN  62  44  51 S21G30    29.54F
THEDFORD       CLOUDY    58  49  70 SW10      29.53R
$$

NEZ041-046>049-061>064-073>077-083>087-251600-
SOUTH CENTRAL NEBRASKA

CITY           SKY/WX    TMP DP  RH WIND       PRES   REMARKS
GRAND ISLAND   SUNNY     63  46  54 S20G26    29.59R
AURORA         SUNNY     64  44  49 S16G24    29.58F
HASTINGS       CLOUDY    63  45  51 S20G31    29.56F
HEBRON         SUNNY     64  47  53 S17G24    29.59F
HOLDREGE       SUNNY     60  45  58 S18G24    29.55S
KEARNEY *      SUNNY     61  45  55 S22G30    29.57R
YORK           SUNNY     63  45  51 S24       29.59F
$$

NEZ011>018-030>034-042>045-251600-
NORTHEAST NEBRASKA

CITY           SKY/WX    TMP DP  RH WIND       PRES   REMARKS
NORFOLK        CLOUDY    64  44  48 S15G31    29.57F
ALBION         SUNNY     64  43  46 S24G31    29.58R
BLAIR          PTSUNNY   63  49  61 S15G23    29.64F
FREMONT        SUNNY     65  48  55 MISG      29.64R
TEKAMAH        LGT RAIN  62  50  64 S17       29.65S
WAYNE          MOSUNNY   63  47  55 S22       29.59F
$$

NEZ050>053-065>068-078-088>093-251600-
SOUTHEAST NEBRASKA

CITY           SKY/WX    TMP DP  RH WIND       PRES   REMARKS
LINCOLN        CLOUDY    66  49  54 S18G24    29.63F
OMAHA EPPLEY   PTSUNNY   63  49  60 S20       29.65F
BEATRICE       SUNNY     65  49  55 S20G26    29.62F
FALLS CITY     SUNNY     65  50  58 S13       29.67F
NEBRASKA CITY  MOSUNNY   65  45  48 S15       29.67F
PLATTSMOUTH    PTSUNNY   64  51  62 SE13      29.66F
$$

NEZ044-045-051>053-067-251600-
OMAHA AREA

CITY           SKY/WX    TMP DP  RH WIND       PRES   REMARKS
OMAHA EPPLEY   PTSUNNY   63  49  60 S20       29.65F
BLAIR          PTSUNNY   63  49  61 S15G23    29.64F
FREMONT        SUNNY     65  48  55 MISG      29.64R
MILLARD        MOSUNNY   64  52  65 SE10      29.64F
OFFUTT AFB     PTSUNNY   62  51  65 S12       29.65F
PLATTSMOUTH    PTSUNNY   64  51  62 SE13      29.66F
WAHOO          FAIR      63  47  56 SE17G24   29.63S
$$




USA.gov is the U.S. government's official web portal to all federal, state and local government web resources and services.